Flag for Tunisia Past Weather in Houmt Souk (Djerba), Tunisia — Yesterday and Last 2 Weeks

Now
82 °F

Passing clouds.


Feels Like: 83 °F
Forecast: 72 / 87 °F
Wind: 8 mph from East

Location: Djerba Mellita

Current Time: Jun 28, 2016 at 8:49:51 AM

Latest Report: Jun 28, 2016 at 8:00 AM


Visibility: N/A

Pressure: 30.04 "Hg

Humidity: 48%

Dew Point: 61 °F

Location of Houmt Souk (Djerba)Location

Past Weather in Houmt Souk (Djerba) — Graph

°F

Houmt Souk (Djerba) Temperature Yesterday

Maximum temperature yesterday: 90 °F (at 1:30 PM)
Minimum temperature yesterday: 73 °F (at 5:00 AM)
Average temperature yesterday: 82 °F

High & Low Weather Summary for the Past Weeks

 TemperatureHumidityPressure
High113 °F (Jun 16, 11:30 AM)83% (Jun 25, 5:30 AM)30.15 "Hg (Jun 25, 5:30 AM)
Low68 °F (Jun 21, 11:00 PM)8% (Jun 16, 12:00 PM)29.56 "Hg (Jun 16, 2:30 AM)
Average81 °F52%29.93 "Hg
* Reported Jun 13 7:00 AM — Jun 28 7:30 AM, Houmt Souk (Djerba), Weather by CustomWeather, © 2016

Note: Actual official high and low records may vary slightly from our data, if they occured in-between our weather recording intervals... More about our weather records

Advertising

Houmt Souk (Djerba) Weather History for the Previous 24 Hours

Scroll right to see more
 ConditionsComfort  
Time TempWeatherWind HumidityBarometerVisibility
7:30 AM
Tue, Jun 28
81 °FSunny.7 mph54%30.04 "Hg10 mi
7:00 AM79 °FPassing clouds.6 mph61%30.04 "HgN/A
6:30 AM77 °FClear.6 mph65%30.04 "Hg5 mi
6:00 AM73 °FClear.3 mph74%30.04 "Hg5 mi
5:30 AM75 °FClear.5 mph69%30.01 "Hg5 mi
5:00 AM75 °FClear.5 mph69%30.01 "Hg5 mi
4:30 AM75 °FClear.2 mph69%30.01 "Hg5 mi
4:00 AM75 °FClear.6 mph69%30.01 "Hg5 mi
3:30 AM77 °FClear.6 mph65%30.01 "Hg5 mi
3:00 AM77 °FClear.6 mph65%30.01 "Hg5 mi
2:30 AM77 °FClear.6 mph65%30.01 "Hg5 mi
2:00 AM77 °FClear.7 mph69%30.01 "Hg5 mi
1:30 AM77 °FClear.5 mph69%30.04 "Hg5 mi
12:30 AM77 °FPassing clouds.5 mph74%30.04 "HgN/A
12:00 AM77 °FClear.8 mph74%30.01 "Hg10 mi
11:30 PM
Mon, Jun 27
77 °FClear.10 mph74%30.04 "Hg10 mi
11:00 PM77 °FClear.8 mph83%30.04 "Hg10 mi
10:30 PM79 °FClear.8 mph74%30.04 "Hg10 mi
10:00 PM81 °FPassing clouds.6 mph58%30.04 "HgN/A
9:30 PM81 °FPassing clouds.5 mph45%30.04 "HgN/A
9:00 PM82 °FPassing clouds.5 mph40%30.04 "HgN/A
8:30 PM82 °FClear.8 mph40%30.01 "Hg10 mi
8:00 PM84 °FClear.9 mph35%30.01 "Hg10 mi
7:30 PM84 °FSunny.12 mph37%29.98 "Hg10 mi
7:00 PM86 °FSunny.12 mph35%29.98 "Hg10 mi
6:30 PM86 °FSunny.13 mph38%29.98 "Hg10 mi
6:00 PM86 °FSunny.14 mph43%29.98 "Hg10 mi
5:30 PM86 °FSunny.15 mph49%29.98 "Hg10 mi
5:00 PM86 °FSunny.16 mph49%29.98 "Hg10 mi
4:30 PM84 °FSunny.15 mph55%30.01 "Hg10 mi
4:00 PM84 °FSunny.15 mph62%30.01 "Hg10 mi
3:30 PM86 °FSunny.15 mph52%30.01 "Hg10 mi
3:00 PM88 °FSunny.15 mph46%30.01 "Hg10 mi
2:30 PM88 °FSunny.15 mph43%30.01 "Hg10 mi
2:00 PM88 °FSunny.16 mph38%30.04 "Hg10 mi
1:30 PM90 °FSunny.15 mph33%30.04 "Hg10 mi
1:00 PM88 °FSunny.16 mph38%30.04 "Hg10 mi
12:30 PM88 °FSunny.15 mph43%30.04 "Hg10 mi
12:00 PM86 °FPassing clouds.15 mph46%30.04 "HgN/A
11:30 AM86 °FSunny.13 mph46%30.07 "Hg10 mi
11:00 AM86 °FSunny.13 mph49%30.04 "Hg10 mi
10:30 AM84 °FSunny.13 mph55%30.04 "Hg10 mi
10:00 AM84 °FSunny.12 mph55%30.04 "Hg10 mi
9:30 AM84 °FPassing clouds.10 mph58%30.04 "HgN/A
9:00 AM82 °FSunny.10 mph62%30.04 "Hg10 mi
8:30 AM81 °FSunny.10 mph70%30.04 "Hg10 mi
8:00 AM82 °FSunny.12 mph70%30.04 "Hg10 mi
Weather by CustomWeather, © 2016

See weather overviewHow to use our weather pages